• En España
  • Lista de países
  • Para 7 días
  • Temperatura del agua
  • Mapa Satelital
  • El tiempo en el mapa
  • Informadores
  • user-avatar
    Iniciar sesión

    Tiempo cada hora Meppel

    Hoy, 24 Enero, Miércoles

    Tiempo Temperatura Precipitaciones Viento Presión Humedad
    00:00 +9°C° 0 mm 8 mps 760 mmHg 90%
    01:00 +9°C° 0,1 mm 8 mps 760 mmHg 90%
    02:00 +9°C° 0,1 mm 7 mps 760 mmHg 91%
    03:00 +9°C° 0,1 mm 7 mps 760 mmHg 91%
    04:00 +10°C° 0 mm 7 mps 759 mmHg 90%
    05:00 +10°C° 0 mm 7 mps 759 mmHg 90%
    06:00 +10°C° 0 mm 8 mps 759 mmHg 89%
    07:00 +10°C° 0 mm 8 mps 758 mmHg 88%
    08:00 +10°C° 0 mm 9 mps 758 mmHg 86%
    09:00 +11°C° 0 mm 9 mps 758 mmHg 85%
    10:00 +11°C° 0 mm 10 mps 757 mmHg 83%
    11:00 +12°C° 0 mm 10 mps 756 mmHg 81%
    12:00 +12°C° 0 mm 11 mps 755 mmHg 80%
    13:00 +12°C° 0,1 mm 11 mps 755 mmHg 79%
    14:00 +12°C° 0,1 mm 11 mps 755 mmHg 79%
    15:00 +12°C° 0,1 mm 11 mps 754 mmHg 78%
    16:00 +11°C° 0,6 mm 11 mps 754 mmHg 78%
    17:00 +11°C° 0,6 mm 11 mps 754 mmHg 79%
    18:00 +11°C° 0,6 mm 11 mps 754 mmHg 79%
    19:00 +10°C° 1,1 mm 9 mps 754 mmHg 81%
    20:00 +9°C° 1,1 mm 8 mps 755 mmHg 83%
    21:00 +9°C° 1,1 mm 6 mps 755 mmHg 85%
    22:00 +8°C° 0,2 mm 6 mps 755 mmHg 84%
    23:00 +8°C° 0,2 mm 6 mps 755 mmHg 84%

    Mañana, 25 Enero, Jueves

    Tiempo Temperatura Precipitaciones Viento Presión Humedad
    00:00 +7°C° 0,2 mm 6 mps 756 mmHg 83%
    01:00 +7°C° 0 mm 6 mps 756 mmHg 84%
    02:00 +7°C° 0 mm 5 mps 756 mmHg 86%
    03:00 +7°C° 0 mm 5 mps 756 mmHg 87%
    04:00 +6°C° 0 mm 5 mps 756 mmHg 87%
    05:00 +6°C° 0 mm 5 mps 756 mmHg 87%
    06:00 +6°C° 0 mm 5 mps 756 mmHg 88%
    07:00 +6°C° 0 mm 5 mps 757 mmHg 87%
    08:00 +6°C° 0 mm 5 mps 757 mmHg 86%
    09:00 +6°C° 0 mm 5 mps 757 mmHg 85%
    10:00 +7°C° 0,1 mm 5 mps 757 mmHg 82%
    11:00 +7°C° 0,1 mm 5 mps 757 mmHg 79%
    12:00 +8°C° 0,1 mm 5 mps 757 mmHg 75%
    13:00 +8°C° 0,1 mm 5 mps 756 mmHg 77%
    14:00 +7°C° 0,1 mm 4 mps 756 mmHg 79%
    15:00 +7°C° 0,1 mm 4 mps 756 mmHg 80%
    16:00 +7°C° 0 mm 3 mps 757 mmHg 83%
    17:00 +7°C° 0 mm 3 mps 757 mmHg 86%
    18:00 +5°C° 0 mm 3 mps 757 mmHg 88%
    19:00 +5°C° 0 mm 3 mps 757 mmHg 89%
    20:00 +5°C° 0 mm 3 mps 758 mmHg 90%
    21:00 +5°C° 0 mm 3 mps 758 mmHg 91%
    22:00 +4°C° 0 mm 3 mps 758 mmHg 91%
    23:00 +4°C° 0 mm 3 mps 758 mmHg 92%

    Pasado mañana, 26 Enero, Viernes

    Tiempo Temperatura Precipitaciones Viento Presión Humedad
    00:00 +4°C° 0 mm 3 mps 758 mmHg 93%
    01:00 +3°C° 0 mm 3 mps 758 mmHg 93%
    02:00 +3°C° 0 mm 3 mps 759 mmHg 94%
    03:00 +3°C° 0 mm 3 mps 759 mmHg 94%
    04:00 +2°C° 0 mm 3 mps 759 mmHg 94%
    05:00 +2°C° 0 mm 3 mps 759 mmHg 94%
    06:00 +2°C° 0 mm 3 mps 760 mmHg 94%
    07:00 +2°C° 0 mm 3 mps 760 mmHg 93%
    08:00 +3°C° 0 mm 3 mps 760 mmHg 92%
    09:00 +3°C° 0 mm 4 mps 761 mmHg 91%
    10:00 +4°C° 0 mm 4 mps 761 mmHg 88%
    11:00 +5°C° 0 mm 3 mps 761 mmHg 84%
    12:00 +7°C° 0 mm 3 mps 762 mmHg 80%
    13:00 +7°C° 0 mm 3 mps 762 mmHg 81%
    14:00 +7°C° 0 mm 2 mps 763 mmHg 82%
    15:00 +7°C° 0 mm 2 mps 763 mmHg 84%
    16:00 +6°C° 0 mm 2 mps 763 mmHg 87%
    17:00 +5°C° 0 mm 2 mps 764 mmHg 89%
    18:00 +4°C° 0 mm 2 mps 764 mmHg 92%
    19:00 +4°C° 0 mm 2 mps 765 mmHg 93%
    20:00 +3°C° 0 mm 2 mps 766 mmHg 93%
    21:00 +3°C° 0 mm 2 mps 766 mmHg 94%
    22:00 +3°C° 0 mm 2 mps 767 mmHg 94%
    23:00 +3°C° 0 mm 2 mps 767 mmHg 94%

    27 Enero, Sábado

    Tiempo Temperatura Precipitaciones Viento Presión Humedad
    00:00 +3°C° 0 mm 2 mps 767 mmHg 95%
    01:00 +2°C° 0 mm 2 mps 768 mmHg 95%
    02:00 +2°C° 0 mm 2 mps 768 mmHg 95%
    03:00 +2°C° 0 mm 2 mps 768 mmHg 95%
    04:00 +2°C° 0 mm 2 mps 769 mmHg 95%
    05:00 +2°C° 0 mm 2 mps 769 mmHg 95%
    06:00 +2°C° 0 mm 2 mps 769 mmHg 96%
    07:00 +2°C° 0 mm 2 mps 770 mmHg 95%
    08:00 +1°C° 0 mm 3 mps 770 mmHg 95%
    09:00 +2°C° 0 mm 3 mps 771 mmHg 95%
    10:00 +3°C° 0 mm 3 mps 771 mmHg 91%
    11:00 +4°C° 0 mm 3 mps 771 mmHg 87%
    12:00 +5°C° 0 mm 4 mps 772 mmHg 83%
    13:00 +5°C° 0 mm 4 mps 772 mmHg 83%
    14:00 +5°C° 0 mm 4 mps 772 mmHg 84%
    15:00 +5°C° 0 mm 4 mps 772 mmHg 84%
    16:00 +5°C° 0 mm 4 mps 772 mmHg 87%
    17:00 +3°C° 0 mm 5 mps 771 mmHg 89%
    18:00 +2°C° 0 mm 5 mps 771 mmHg 92%
    19:00 +3°C° 0 mm 6 mps 771 mmHg 88%
    20:00 +3°C° 0 mm 6 mps 771 mmHg 85%
    21:00 +3°C° 0 mm 7 mps 771 mmHg 82%
    22:00 +3°C° 0,1 mm 7 mps 771 mmHg 82%
    23:00 +3°C° 0,1 mm 7 mps 771 mmHg 81%

    28 Enero, Domingo

    Tiempo Temperatura Precipitaciones Viento Presión Humedad
    00:00 +4°C° 0,1 mm 8 mps 771 mmHg 81%
    01:00 +4°C° 0,2 mm 8 mps 771 mmHg 83%
    02:00 +4°C° 0,2 mm 7 mps 771 mmHg 85%
    03:00 +4°C° 0,2 mm 7 mps 770 mmHg 88%
    04:00 +5°C° 0,1 mm 7 mps 771 mmHg 90%
    05:00 +5°C° 0,1 mm 6 mps 771 mmHg 91%
    06:00 +6°C° 0,1 mm 5 mps 771 mmHg 93%
    07:00 +7°C° 0 mm 5 mps 771 mmHg 93%
    08:00 +7°C° 0 mm 5 mps 772 mmHg 94%
    09:00 +7°C° 0 mm 5 mps 772 mmHg 94%
    10:00 +8°C° 0 mm 5 mps 772 mmHg 90%
    11:00 +8°C° 0 mm 5 mps 772 mmHg 86%
    12:00 +9°C° 0 mm 6 mps 773 mmHg 82%
    13:00 +9°C° 0 mm 6 mps 773 mmHg 83%
    14:00 +9°C° 0 mm 6 mps 772 mmHg 84%
    15:00 +9°C° 0 mm 6 mps 772 mmHg 85%
    16:00 +9°C° 0 mm 6 mps 773 mmHg 87%
    17:00 +9°C° 0 mm 6 mps 773 mmHg 90%
    18:00 +8°C° 0 mm 6 mps 773 mmHg 92%
    19:00 +8°C° 0 mm 6 mps 773 mmHg 93%
    20:00 +8°C° 0 mm 6 mps 773 mmHg 94%
    21:00 +8°C° 0 mm 5 mps 773 mmHg 95%
    22:00 +8°C° 0 mm 6 mps 773 mmHg 95%
    23:00 +8°C° 0 mm 6 mps 773 mmHg 94%

    29 Enero, Lunes

    Tiempo Temperatura Precipitaciones Viento Presión Humedad
    00:00 +8°C° 0 mm 6 mps 773 mmHg 94%
    01:00 +8°C° 0 mm 6 mps 772 mmHg 93%
    02:00 +8°C° 0 mm 6 mps 772 mmHg 92%
    03:00 +8°C° 0 mm 6 mps 772 mmHg 91%
    04:00 +8°C° 0 mm 7 mps 772 mmHg 90%
    05:00 +8°C° 0 mm 7 mps 772 mmHg 89%
    06:00 +8°C° 0 mm 7 mps 772 mmHg 88%
    07:00 +8°C° 0 mm 7 mps 772 mmHg 87%
    08:00 +8°C° 0 mm 7 mps 772 mmHg 87%
    09:00 +8°C° 0 mm 7 mps 772 mmHg 86%
    10:00 +8°C° 0 mm 7 mps 771 mmHg 84%
    11:00 +9°C° 0 mm 8 mps 771 mmHg 82%
    12:00 +9°C° 0 mm 8 mps 771 mmHg 81%
    13:00 +9°C° 0 mm 7 mps 771 mmHg 80%
    14:00 +9°C° 0 mm 7 mps 770 mmHg 80%
    15:00 +9°C° 0 mm 7 mps 770 mmHg 80%
    16:00 +9°C° 0 mm 6 mps 770 mmHg 82%
    17:00 +8°C° 0 mm 6 mps 770 mmHg 84%
    18:00 +7°C° 0 mm 6 mps 770 mmHg 86%
    19:00 +8°C° 0,1 mm 6 mps 769 mmHg 86%
    20:00 +8°C° 0,1 mm 6 mps 769 mmHg 86%
    21:00 +8°C° 0,1 mm 6 mps 769 mmHg 86%
    22:00 +8°C° 0 mm 6 mps 768 mmHg 87%
    23:00 +7°C° 0 mm 6 mps 767 mmHg 88%
    Mostrar más